User: anonymous   Login
Location: Caltech
(34.1382°N, 118.1253°W)
Time: 01:13:17
(UTC-08:00)
Language:

Gbstr 26 Del rocket - Orbit

View from above orbital plane
View from above orbital plane
View from above satellite
View from above satellite

Ground track
Ground track

The orbit data is extracted from the following two-line orbital elements,

1 25876U 99041E   17327.56809897 +.00000007 +00000-0 +43042-4 0  9997
2 25876 051.7651 048.0181 0531886 132.5673 232.1431 14.04152410936999
Epoch (UTC): 23 November 2017 13:38:03
Eccentricity: 0.0531886
inclination: 51.7651°
perigee height: 493 km
apogee height: 1265 km
right ascension of ascending node: 48.0181°
argument of perigee: 132.5673°
revolutions per day: 14.04152410
mean anomaly at epoch: 232.1431°
orbit number at epoch: 93699

The dashed part of the orbit path shows where the satellite is in the earth's shadow,  

DLR